Starlink 30480

operational
NORAD ID: 58069 Int'l Des: 2023-158 Owner: SPXS Country: US Constellation: starlink
LEOCIRCULAR

Über Starlink 30480

Beschreibung wird geladen...

Live-Position

3D-Globus wird geladen...

Nächste Überflüge

Höhenverlauf

Altitude vs Time

uPlot chart will show altitude changes over time

Zweizeiliger Elementsatz

1 58069U 23158U 25260.03948565 -.00008644 00000-0 -30517-3 0 9995
2 58069 42.9986 145.5094 0001607 285.7870 74.2804 15.27554974108684
Epoch: 17. Sept. 2025 • Age: 21 hours

Aktueller Status

Höhe 482.4 km
Geschwindigkeit 7.63 km/s
Subsatellitenpunkt 16.83°N, 159.42°W
Startdatum 13. Okt. 2023
Alter 1.9 years
Typ internet

Technische Details

Klassifizierung Payload
Masse 730.00 kg
Trockenmasse 700.00 kg
Gesamtmasse 730.00 kg
Länge 0.30 m
Durchmesser 4.10 m
Spannweite 29.00 m
Form Box + pan
Hersteller SPXS
Bus-Typ Starlink V2M
Phasenstatus In Orbit
Besitzer/Staat SPXS/US

Große Konstellationen

Loading constellations...